Location: Rochester
(43.1610°N, 77.6109°W)
Time: 02:04:28
(UTC-05:00)

CAS-4A - Pass Details

Date: 27 October 2021
Orbit: 529 x 539 km, 43.0° (Epoch: 30 November)

Event Time Altitude Azimuth Distance (km) Brightness Sun altitude
Rises 18:39:44 0° 281° (W) 2,688 ? -6.3°
Reaches altitude 10° 18:42:07 10° 271° (W) 1,795 ? -6.7°
Maximum altitude 18:45:50 33° 207° (SSW) 908 ? -7.4°
Drops below altitude 10° 18:49:32 10° 142° (SE) 1,786 ? -8.1°
Sets 18:51:54 0° 133° (SE) 2,673 ? -8.5°
